Theta_e
352 352 346 346 352 349 348 348 351 349 350 349 354 351 355 353 354 355 355 353 353 351 351 353 355 351 346 349 354 352 350 348 348 346 346 346 346 347 346 347 347 348 348
352 354 353 346 348 351 352 346 350 350 350 357 354 352 354 355 355 355 354 353 355 354 353 352 354 356 352 353 350 349 351 353 353 351 350 349 349 356 355 354 352 351 351
355 353 355 353 346 350 349 348 345 347 348 350 357 356 356 355 353 353 355 353 353 356 355 354 352 355 358 355 353 353 352 351 359 359 358 357 357 353 351 353 355 353 351
356 355 354 355 354 347 347 346 349 344 346 348 351 356 354 354 353 353 354 353 352 351 357 357 356 357 354 353 354 355 357 356 355 354 355 357 357 355 356 355 354 355 357
357 358 357 355 355 356 352 351 344 352 349 353 353 353 357 355 356 354 353 353 354 353 352 355 357 354 352 353 354 356 358 358 359 359 360 360 359 357 355 353 356 355 350
360 360 359 359 357 356 357 356 353 348 355 352 356 358 355 357 356 356 354 353 356 356 354 353 355 357 355 353 355 356 356 357 360 362 362 359 356 352 349 351 352 354 358
356 360 360 360 360 358 357 357 357 353 352 358 355 357 358 357 357 358 358 355 353 353 356 354 353 353 355 356 356 355 355 355 356 355 355 355 354 352 352 353 354 355 357
356 358 360 360 360 360 359 358 358 357 353 352 359 360 359 359 357 358 359 357 355 353 352 356 357 355 352 353 355 355 353 352 352 353 354 354 355 355 356 352 353 357 358
357 357 360 361 360 360 360 359 358 358 358 354 355 359 361 360 360 359 359 357 354 354 352 350 350 350 352 354 354 354 357 358 360 360 360 357 352 350 352 353 356 359 358
358 359 359 360 360 361 360 360 359 358 359 360 358 359 361 361 360 360 360 359 357 353 351 351 351 350 351 352 356 356 355 355 352 351 352 352 355 356 358 360 358 356 355
359 359 360 360 360 360 361 360 360 360 359 359 360 360 360 361 361 360 360 361 358 355 353 352 351 349 349 348 348 348 349 346 349 351 353 356 359 358 358 360 362 361 358
362 361 361 361 360 361 361 362 361 361 361 360 360 361 361 362 362 362 360 359 360 358 356 354 353 352 352 351 350 352 351 351 353 354 356 357 356 354 358 358 360 363 363
348 362 362 363 361 362 362 363 362 362 361 361 361 361 361 361 363 364 362 361 360 361 358 356 355 355 355 354 352 350 351 353 353 351 352 352 353 356 359 362 361 361 363
343 362 360 363 365 362 364 364 364 364 363 363 363 362 362 362 363 364 364 364 363 363 363 360 357 356 355 354 354 354 354 353 352 351 351 353 357 362 363 362 363 363 364
337 364 363 363 365 365 365 365 365 365 365 365 364 363 362 363 361 363 365 365 364 363 362 359 356 357 357 357 356 355 353 355 358 357 356 359 361 361 362 363 365 364 363
334 354 363 366 366 365 364 365 365 365 365 365 365 364 363 363 364 362 362 364 362 361 359 356 355 356 356 355 355 354 353 355 360 361 361 363 363 363 364 363 360 359 359
329 330 347 362 366 365 364 363 361 364 366 365 365 364 364 363 361 361 362 359 358 362 356 354 356 356 356 356 357 357 356 356 357 364 364 362 364 365 363 359 358 356 356
331 328 333 343 350 359 364 364 362 361 359 359 364 364 364 362 359 357 357 356 353 355 355 355 356 358 359 360 361 361 364 364 364 362 360 361 362 362 360 357 357 357 355
325 330 331 336 341 350 357 363 363 362 359 358 355 354 358 358 359 360 360 361 355 353 357 360 361 361 363 364 365 365 364 363 362 361 362 364 365 363 361 357 357 357 356
325 330 330 334 338 343 350 358 361 360 357 357 353 351 352 353 353 353 354 356 356 357 357 358 357 356 356 359 361 362 363 365 364 363 363 362 361 360 359 356 355 355 355
322 325 333 335 337 335 337 346 349 348 344 343 341 345 347 349 345 342 346 348 349 344 346 351 353 351 351 349 349 353 356 357 360 362 361 360 358 356 355 354 354 354 355
315 317 317 322 329 325 324 328 329 329 330 330 326 328 333 329 325 325 326 330 329 331 333 329 332 343 347 348 341 339 343 332 342 348 352 356 357 356 355 354 353 352 350
309 310 311 311 312 314 315 314 317 318 318 317 317 318 322 317 315 312 314 314 317 320 318 323 325 325 332 336 337 330 322 323 325 327 335 338 341 345 348 348 347 347 345
302 303 305 304 304 305 306 305 306 305 306 306 308 309 306 310 312 307 309 309 310 314 314 310 315 317 317 323 326 324 319 321 327 328 329 331 334 337 338 338 338 340 340
299 299 299 299 299 299 300 300 300 301 300 300 300 299 300 301 300 301 301 302 304 305 307 307 305 308 310 311 311 311 313 315 320 325 326 327 328 330 331 332 334 336 336
298 297 297 297 296 297 297 296 296 297 296 297 299 299 298 298 298 299 300 300 300 299 298 298 298 300 302 302 304 308 309 311 313 315 318 320 320 321 322 322 324 325 327
Wind_Speed
41 38 39 41 39 36 33 31 26 23 19 15 27 31 26 23 20 19 17 15 17 16 14 15 14 14 11 10 5 5 9 11 9 16 15 16 18 18 19 22 25 27 29
42 38 39 39 40 42 36 36 31 29 25 15 26 29 28 26 23 22 21 20 17 19 18 17 17 15 16 12 12 11 10 8 10 13 17 19 20 18 19 23 27 29 28
41 41 37 37 42 42 42 36 38 32 33 28 24 29 28 25 24 24 24 23 22 18 22 19 18 16 18 17 16 15 12 12 10 11 16 17 21 25 29 29 25 16 17
43 41 40 40 38 40 38 42 36 38 37 36 32 27 27 27 26 24 25 25 24 25 20 23 21 20 21 21 21 19 18 18 20 22 22 23 23 25 26 16 22 21 18
40 40 41 39 38 34 37 38 45 36 41 37 36 34 29 29 28 28 27 28 28 26 26 24 24 26 25 24 24 24 23 22 22 22 24 24 22 20 22 25 25 29 33
40 40 39 38 39 39 36 34 39 42 39 42 39 35 36 34 33 32 31 31 29 30 29 28 27 25 26 26 26 28 29 27 25 20 22 24 30 33 33 28 29 24 11
39 39 40 40 39 40 37 36 36 40 38 37 40 37 40 38 34 33 32 31 33 33 33 31 30 30 29 27 26 28 31 32 32 33 30 33 31 32 29 28 28 29 24
37 38 39 40 40 38 38 38 36 35 40 37 34 37 37 37 38 35 34 34 35 35 34 33 32 31 30 28 28 30 34 35 34 34 35 36 35 34 30 31 31 30 29
32 38 39 40 39 37 39 38 37 34 33 36 35 34 36 35 36 38 35 36 37 39 38 37 36 35 34 31 30 32 29 28 26 25 24 26 30 28 26 27 30 25 19
30 34 38 40 39 39 41 38 37 36 35 32 35 36 37 37 37 36 37 38 38 36 37 39 38 37 34 30 27 33 36 38 35 34 34 32 27 27 24 23 27 23 19
30 32 36 39 39 40 37 38 36 34 33 33 33 34 35 38 39 40 38 38 35 32 34 34 41 41 40 39 38 40 41 42 35 32 29 25 23 24 23 23 24 26 25
18 30 34 37 38 36 38 35 35 33 32 32 32 30 32 35 38 38 40 41 42 34 33 36 35 35 33 30 31 34 35 37 36 32 28 27 28 29 26 20 20 20 20
22 27 34 34 37 35 37 35 33 32 31 30 29 29 30 31 33 38 41 41 42 43 39 36 32 29 26 29 29 24 25 35 38 33 31 32 30 26 21 20 22 22 20
27 21 32 34 31 33 34 35 34 33 32 30 30 29 29 29 30 32 38 41 41 42 44 40 39 34 31 30 24 20 20 23 26 30 31 28 22 19 20 21 21 19 19
30 20 29 30 33 30 29 33 33 35 35 32 31 30 28 29 35 33 36 40 42 42 43 40 29 32 34 33 33 33 29 24 24 24 24 22 22 21 22 18 15 12 14
26 10 19 23 25 26 28 25 35 35 36 38 35 32 32 32 30 36 37 37 38 38 37 26 26 27 28 29 29 31 31 31 29 26 24 23 23 21 20 15 14 17 21
23 22 9 5 17 22 23 26 20 31 34 35 37 38 32 34 39 33 38 39 43 39 25 26 24 25 27 27 27 28 27 28 28 27 24 23 21 18 17 17 16 16 18
21 19 13 8 6 7 22 23 24 22 23 26 33 38 38 42 28 24 25 26 31 34 27 26 28 28 28 28 28 28 27 26 27 24 22 21 21 20 15 15 16 17 18
20 18 16 11 9 4 8 22 27 23 24 22 23 20 26 26 20 15 12 10 15 25 25 24 26 23 23 22 23 27 25 24 23 22 20 18 16 16 16 16 18 20 19
20 12 12 13 10 13 5 6 18 16 13 11 19 22 22 18 13 9 9 13 15 9 9 14 11 10 13 20 24 23 24 24 22 20 18 15 14 15 15 15 16 19 19
17 20 11 16 12 19 16 20 15 18 21 18 18 16 10 12 20 15 12 10 9 13 12 5 7 7 8 13 17 17 21 22 13 12 12 13 13 15 15 14 15 18 19
18 20 22 18 20 19 24 25 22 20 24 24 23 31 31 32 24 19 15 13 12 12 12 15 18 15 9 12 13 11 11 14 9 4 2 5 11 12 12 15 15 17 17
21 20 20 24 20 23 24 25 24 21 20 25 27 26 30 29 29 20 18 17 17 18 18 19 20 18 19 18 13 12 10 13 14 10 8 6 6 5 10 15 17 19 16
22 24 21 21 24 21 21 24 28 27 21 24 29 25 25 28 26 19 19 15 17 21 22 21 22 21 19 19 11 7 11 13 12 14 12 12 11 10 10 11 11 7 6
24 24 25 22 21 21 22 26 26 28 22 27 33 24 28 30 24 24 21 21 24 24 23 23 23 24 21 19 15 13 11 11 10 11 11 10 12 13 13 12 12 14 14
28 26 24 25 25 23 23 23 23 25 24 26 27 27 24 29 29 28 25 24 25 24 26 27 24 23 22 22 19 15 15 16 17 14 11 10 11 12 13 13 14 15 15
Wind_Direction
192 196 201 207 207 212 212 209 214 211 217 222 210 199 203 202 204 213 222 226 231 229 226 234 249 254 265 261 289 259 257 253 256 281 290 299 304 303 295 291 291 290 290
193 194 199 203 206 212 213 213 210 214 216 199 200 199 202 204 207 216 222 229 233 240 236 236 248 249 257 263 263 257 257 264 267 273 282 288 300 303 295 292 294 292 292
190 194 195 199 204 209 212 213 218 217 217 215 198 198 199 205 209 215 226 232 233 240 235 239 235 239 244 254 267 267 265 270 285 293 298 297 294 295 297 301 311 328 317
189 192 196 199 202 207 211 214 213 220 221 223 221 212 210 211 215 219 223 232 237 236 235 237 240 242 247 253 260 263 266 271 278 282 284 287 293 298 301 310 322 327 324
190 193 197 199 201 203 206 212 215 218 220 220 222 222 221 221 220 221 223 226 233 238 240 241 246 246 249 252 255 258 259 262 267 272 279 285 285 291 302 311 309 310 308
191 196 197 196 199 203 202 205 213 213 218 219 220 222 225 226 227 227 225 225 229 234 239 242 243 250 248 251 252 256 258 256 259 256 264 273 280 288 295 297 298 300 310
198 197 196 196 197 200 202 203 210 211 215 214 218 220 226 230 228 225 225 228 229 232 237 241 244 245 248 250 253 255 256 256 257 263 264 269 273 283 291 291 290 291 283
196 198 197 197 198 197 198 202 206 208 214 217 216 218 223 228 232 228 226 229 234 235 235 238 242 246 248 248 254 260 259 259 261 262 263 267 273 282 285 288 289 289 288
189 196 195 196 196 195 198 201 204 206 209 214 219 220 220 226 230 231 226 230 235 237 239 240 242 247 248 247 250 257 260 261 261 259 263 269 278 283 284 286 279 277 282
229 193 195 193 195 195 198 200 202 207 211 211 217 222 223 225 228 228 227 230 235 238 242 243 241 243 247 247 245 250 258 261 265 268 271 274 273 277 279 272 275 258 264
217 199 195 194 196 197 196 198 201 204 210 215 218 222 224 227 228 230 228 228 228 234 237 242 245 247 249 254 256 255 254 264 263 269 273 273 272 274 278 277 281 269 262
265 209 199 197 197 194 193 195 200 202 206 212 217 222 226 227 231 230 233 231 233 226 231 238 241 248 252 255 256 256 259 261 260 262 264 265 268 278 287 280 272 270 271
319 226 207 200 197 196 192 193 195 201 206 212 215 219 224 226 227 230 236 237 237 234 235 238 241 243 245 250 254 254 260 259 255 251 254 261 270 283 283 272 271 278 275
320 263 207 203 194 195 193 194 194 201 207 211 214 219 221 225 226 225 229 235 240 238 241 243 243 243 246 252 253 251 248 247 246 247 252 262 272 270 265 273 272 275 261
324 247 203 200 196 195 192 194 200 208 207 209 214 218 219 222 224 224 222 229 234 238 239 236 236 238 242 247 253 257 256 253 242 244 246 251 258 263 268 272 266 253 248
337 337 201 195 194 196 199 198 207 212 216 218 217 218 224 231 232 228 230 236 241 239 230 220 225 230 235 240 242 247 242 240 238 240 241 246 252 257 259 247 265 277 278
346 346 342 189 202 195 200 209 211 213 217 222 223 225 228 235 237 240 234 236 237 234 216 215 219 223 231 234 236 239 236 232 238 225 233 246 249 244 251 263 268 271 276
351 357 359 0 321 236 212 208 210 206 207 212 222 225 228 236 237 234 235 231 222 220 211 213 215 220 225 232 235 236 235 219 213 230 237 239 247 251 249 252 259 259 268
356 349 15 25 19 269 270 226 211 202 199 196 203 204 204 197 191 197 199 206 200 199 210 217 226 233 240 240 240 227 220 226 230 230 239 241 226 231 240 256 255 260 268
1 350 360 16 33 62 53 228 228 192 175 174 179 194 191 193 202 220 241 248 262 262 265 265 263 288 316 286 261 243 239 227 223 227 239 242 231 232 233 253 259 263 263
13 14 22 36 32 63 53 74 76 112 99 80 87 94 134 127 115 116 97 102 102 77 69 76 81 70 29 21 13 334 279 252 232 238 241 241 244 240 241 248 258 263 263
40 39 30 37 49 47 55 64 72 69 80 85 67 77 98 88 80 85 87 98 95 91 104 98 82 80 79 51 45 29 360 10 50 54 42 273 265 261 257 256 262 266 274
47 42 37 44 45 52 59 59 55 57 69 78 79 75 81 74 76 63 66 66 76 78 77 101 103 91 75 67 59 55 15 2 1 0 360 358 360 328 286 271 269 260 253
59 57 45 45 48 55 54 61 61 52 46 61 75 81 72 85 80 72 71 72 73 77 77 66 71 73 65 80 88 66 15 1 357 355 346 330 327 322 326 339 340 330 310
52 58 60 54 53 54 57 61 71 78 63 59 62 64 78 91 91 93 82 73 67 68 71 69 61 65 61 59 58 50 41 28 6 349 335 335 326 318 312 314 317 308 307
60 56 58 64 64 65 70 72 69 71 70 73 76 75 73 78 80 81 83 82 79 74 72 72 71 72 71 63 54 47 41 35 31 26 12 0 352 350 338 333 322 323 313